BREEZE-M DEB, 32494

Orbit data source: Space-Track

BREEZE-M DEB, 32494 is space debris in HEO originally from a launch on Tue, 28 Feb 2006 UTC launched from the Tyuratam Missile And Space Complex (TTMTR). Debris objects in space refer to the collection of defunct objects orbiting the Earth. Examples of debris include non-operational satellites, rocket bodies, and fragments generated from explosions, collisions, or faulty payload assembly.

Loading next visibility...
Identifier
32494, 2006-006AH
Orbit
HEO
Country
Flag of CISCIS
Related business
Manufacturer
Khrunichev
Mission
Spacecraft
Bus & Motor
Unknown
Mass
Unknown
Launch date (UTC)
2006-02-28 (20 years ago)
Launch vehicle
Unknown
Launch site
Tyuratam Missile And Space Complex (TTMTR)
Object type
Payload
Rocket body
Debris
Shape & HBR
Unknown shape, 0.1 m
Radar Cross Section
Medium (>0.1 m² and <1 m²)

Expand to show TLE details & history
Last TLE update: 1 day ago

TLE from 1 day ago
0 BREEZE-M DEB
1 32494U 06006AH  26162.14557608  .00000607  00000-0  78968-3 0  9991
2 32494  51.6139 143.5168 5062376  47.3780 345.5159  5.29766616369586
Epoch: 2026-06-11T03:29Z
TLE epoch observation values (Epoch: 2026-06-11T03:29:37.773Z)
Latitude
-0°
Longitude
-168.40039°
Altitude
1,319.087 km
Speed
8.655 km/s
True Right ascension
09h 34m 00s
True Declination
0° 00' 00"
Sunlit
Object was in daylight at epoch
Visualization orbit readout
Latitude
Unknown
Longitude
Unknown
Altitude
Unknown
Speed
Unknown
Apparent Right ascension
Unknown
Apparent Declination
Unknown
Sunlit
N/A
Visualization observer readout
Local Sidereal Time
20:09:00
Azimuth
Unknown
Elevation
Unknown
Doppler factor
Unknown
Orbital elements
Apogee altitude
14,559.032 km
Perigee altitude
485.313 km
Semi-major axis
13,900.31 km
Eccentricity
0.50624
Inclination
51.6139°
RAAN
143.5168°
Arg. of periapsis
47.378°
True anomaly
312.65146°
Mean anomaly
345.5159°
Eccentric anomaly
331.81703°
Mean motion
1.32436 °/min
Orbital period
271.83 mins
BSTAR
0.00078968
Loading maneuver chart data...
Computing Atmospheric mass density...
Loading historical data...
Loading historical data...
Loading historical data...
Loading historical data...
Loading historical data...
Loading historical data...
Loading historical data...

Documentation

Showing up to 5 results
|